[[{"header":{"parameterUnit":"m.s-1","parameterCategory":1,"la1":30.2991,"la2":30.254,"lo1":-89.0895,"lo2":-89.0444,"dy":0.0017,"dx":0.0017,"nx":28,"ny":28,"refTime":"2024-03-13T03:00:00:Z","depth":0,"parameterNumber":2,"parameterNumberName":"U-component_of_WINDS"},"data":[0,0,0,0,0,0,0,0,0,0,0,0,0,0,0,0,0,0,0,0,0,0,0,0,0,0,0,0,0,0,0,0,0,0,0,0,0,0,0,0,0,0,0,0,0,0,0,0,0,0,0,0,0,0,0,0,0,0,-2.6185,-2.6186,0,-2.6301,-2.6302,-2.6304,-2.6287,-2.6285,-2.6283,-2.6281,-2.6403,-2.6407,-2.6412,0,0,0,0,0,0,0,0,0,0,0,0,0,-2.5951,-2.5956,-2.6184,-2.6186,-2.6187,-2.6301,-2.6302,-2.6304,-2.6287,-2.6285,-2.6283,-2.628,-2.6401,-2.6407,-2.6413,0,0,0,0,0,0,0,0,0,0,0,0,0,-2.6059,-2.5957,-2.6184,-2.6193,-2.6195,-2.6301,-2.6303,-2.6304,-2.6288,-2.6285,-2.6282,-2.6279,-2.6399,-2.6406,-2.6414,-2.6519,0,0,-2.6437,-2.644,0,0,0,0,0,0,0,0,-2.6053,-2.6067,-2.619,-2.6192,-2.6195,-2.6276,-2.6265,-2.6377,-2.6289,-2.6252,-2.6281,-2.6278,-2.6363,-2.6373,-2.6402,-2.6525,-2.653,-2.6438,-2.6442,-2.6445,-2.6448,0,0,0,0,0,0,0,-2.6045,-2.6062,-2.6231,-2.6192,-2.6195,-2.6192,-2.6204,-2.6286,-2.6323,-2.6255,-2.6254,-2.6268,-2.6364,-2.6395,-2.6405,-2.6532,-2.6437,-2.6444,-2.6449,-2.6452,-2.675,-2.6754,0,0,0,0,0,0,-2.6035,-2.6056,-2.6227,-2.6234,-2.6115,-2.6198,-2.6212,-2.6253,-2.6322,-2.633,-2.6271,-2.6267,-2.6383,-2.6396,-2.6409,-2.6538,-2.6445,-2.6453,-2.6457,-2.6747,-2.6751,-2.6755,0,0,0,0,0,0,-2.603,-2.605,-2.6222,-2.6145,-2.6167,-2.6206,-2.6252,-2.6257,-2.6288,-2.6334,-2.634,-2.6295,-2.6381,-2.6398,-2.6492,-2.6542,-2.6456,-2.6463,-2.6743,-2.6748,-2.6753,-2.6796,0,0,0,0,0,0,-2.6024,-2.6049,-2.6088,-2.6146,-2.6171,-2.6303,-2.6255,-2.6261,-2.63,-2.6297,-2.6358,-2.6365,-2.638,-2.6481,-2.65,-2.6551,-2.6469,-2.6739,-2.6745,-2.6751,-2.6791,-2.6802,-2.6812,0,0,0,0,0,-2.6015,-2.6096,-2.609,-2.6111,-2.6221,-2.6306,-2.632,-2.6334,-2.6304,-2.6345,-2.6375,-2.6364,-2.6534,-2.6491,-2.6512,-2.6566,-2.6736,-2.6744,-2.6751,-2.6786,-2.68,-2.6812,0,0,0,0,0,0,-2.6042,-2.6103,-2.6098,-2.6199,-2.6247,-2.6302,-2.6354,-2.6349,-2.6407,-2.6401,-2.6418,-2.6432,-2.6528,-2.6556,-2.6508,-2.6673,-2.6631,-2.6643,-2.665,-2.6664,-2.6675,-2.6665,-2.6475,0,0,0,0,0,-2.606,-2.6123,-2.6173,-2.6258,-2.6283,-2.6314,-2.6352,-2.6359,-2.641,-2.643,-2.6467,-2.6518,-2.6583,-2.6625,-2.6688,-2.6796,-2.6809,-2.6843,-2.6854,-2.6863,-2.6873,-2.6934,-2.695,-2.678,-2.678,-2.678,0,0,-2.6097,-2.6139,-2.6177,-2.6265,-2.6303,-2.6369,-2.6331,-2.6402,-2.6452,-2.6441,-2.6532,-2.6562,-2.662,-2.6722,-2.6768,-2.6749,-2.6923,-2.6872,-2.6879,-2.6884,-2.6943,-2.6959,-2.6973,-2.6785,-2.6784,-2.6783,0,0,-2.6199,-2.6236,-2.6311,-2.6351,-2.6409,-2.6431,-2.6449,-2.6506,-2.6525,-2.6617,-2.6611,-2.6671,-2.6782,-2.6824,-2.686,-2.6981,-2.6973,-2.7001,-2.7057,-2.7116,-2.713,-2.7142,-2.7186,-2.7201,-2.7011,-2.7011,-2.7012,0,-2.6238,-2.6336,-2.6351,-2.6423,-2.6462,-2.6457,-2.6534,-2.6572,-2.6648,-2.6676,-2.6653,-2.6794,-2.6833,-2.6945,-2.6975,-2.7004,-2.7026,-2.6993,-2.7127,-2.7139,-2.715,-2.7192,-2.7209,-2.7014,-2.7014,-2.7014,-2.7014,0,-2.6382,-2.645,-2.6504,-2.6578,-2.6624,-2.6698,-2.6726,-2.6771,-2.6775,-2.6799,-2.6894,-2.6941,-2.7013,-2.7041,-2.7046,-2.7155,-2.7141,-2.7122,-2.708,-2.7169,-2.7209,-2.7225,-2.7019,-2.7018,-2.7017,-2.7016,0,0,-2.65,-2.6584,-2.6603,-2.6637,-2.6703,-2.6757,-2.6833,-2.6903,-2.6942,-2.6996,-2.706,-2.7156,-2.714,-2.7181,-2.7191,-2.7243,-2.7338,-2.7218,-2.722,-2.7239,-2.7463,-2.7476,-2.7494,-2.7334,-2.7337,-2.7339,-2.7458,0,-2.6608,-2.674,-2.6757,-2.6875,-2.6939,-2.6937,-2.7003,-2.7051,-2.7077,-2.7137,-2.7166,-2.7233,-2.7206,-2.7231,-2.7283,-2.7315,-2.7383,-2.7307,-2.7395,-2.7397,-2.7379,-2.7515,-2.7528,-2.7638,-2.7473,-2.7476,-2.7478,0,-2.675,-2.6808,-2.6933,-2.6992,-2.7019,-2.7078,-2.7146,-2.7203,-2.7259,-2.7274,-2.7321,-2.7325,-2.7406,-2.7362,-2.7473,-2.7421,-2.7459,-2.748,-2.7485,-2.7493,-2.7442,-2.7526,-2.7673,-2.7689,-2.7503,-2.7501,-2.7499,0,-2.6825,-2.6934,-2.7023,-2.7053,-2.7124,-2.7166,-2.7197,-2.725,-2.7293,-2.7353,-2.7381,-2.7449,-2.7487,-2.754,-2.7564,-2.753,-2.7675,-2.7632,-2.769,-2.769,-2.7719,-2.7717,-2.7874,-2.7745,-2.7745,-2.7745,-2.7744,0,-2.6943,-2.7019,-2.7058,-2.7112,-2.7198,-2.7219,-2.7304,-2.7334,-2.7383,-2.7444,-2.7447,-2.7505,-2.7533,-2.7596,-2.7616,-2.7706,-2.7723,-2.7738,-2.7742,-2.7737,-2.7735,-2.7761,-2.7754,-2.7749,-2.7748,-2.7747,-2.7746,0,-2.7039,-2.7068,-2.7165,-2.7225,-2.7242,-2.7303,-2.7355,-2.7409,-2.7436,-2.7514,-2.7534,-2.7575,-2.765,-2.7679,-2.7771,-2.7784,-2.7888,-2.7886,-2.7868,-2.7869,-2.7926,-2.792,-2.8104,-2.813,-2.7984,-2.7986,-2.7987,0,-2.7111,-2.717,-2.7237,-2.7279,-2.7312,-2.7378,-2.7422,-2.7446,-2.7491,-2.7561,-2.7607,-2.7682,-2.7742,-2.7862,-2.7901,-2.7972,-2.7972,-2.8032,-2.7982,-2.7976,-2.7973,-2.7969,-2.7975,-2.804,-2.8042,-2.8043,-2.8044,0,-2.7237,-2.725,-2.7311,-2.738,-2.7432,-2.7487,-2.754,-2.7575,-2.7607,-2.7658,-2.7735,-2.7782,-2.7876,-2.7951,-2.8024,-2.8058,-2.8057,-2.806,-2.8077,-2.8072,-2.8059,-2.8067,-2.7893,-2.8055,-2.8053,-2.8053,-2.8052,-2.8052,-2.7324,-2.7376,-2.7432,-2.7502,-2.7545,-2.7596,-2.765,-2.7684,-2.7748,-2.7826,-2.7837,-2.7919,-2.7977,-2.8075,-2.8113,-2.8179,-2.8163,-2.8188,-2.8194,-2.82,-2.8204,-2.805,-2.8192,-2.8192,-2.8192,-2.8192,-2.8191,0,-2.7449,-2.7486,-2.755,-2.7625,-2.7681,-2.7676,-2.7736,-2.7783,-2.7855,-2.7909,-2.7969,-2.8058,-2.8132,-2.8178,-2.8252,-2.8296,-2.8297,-2.8314,-2.8311,-2.8319,-2.8213,-2.8191,-2.8312,-2.8312,-2.8312,-2.8312,-2.8312,-2.8312,-2.7521,-2.761,-2.763,-2.7741,-2.7778,-2.7858,-2.7893,-2.7941,-2.7984,-2.8083,-2.8144,-2.8173,-2.8225,-2.8303,-2.8371,-2.8383,-2.841,-2.8428,-2.8439,-2.8339,-2.8326,-2.8314,-2.8293,-2.8434,-2.8434,-2.854,-2.854,-2.8541]},{"header":{"parameterUnit":"m.s-1","parameterCategory":1,"la1":30.2991,"la2":30.254,"lo1":-89.0895,"lo2":-89.0444,"dy":0.0017,"dx":0.0017,"nx":28,"ny":28,"refTime":"2024-03-13T03:00:00:Z","depth":0,"parameterNumber":3,"parameterNumberName":"V-component_of_WINDS"},"data":[0,0,0,0,0,0,0,0,0,0,0,0,0,0,0,0,0,0,0,0,0,0,0,0,0,0,0,0,0,0,0,0,0,0,0,0,0,0,0,0,0,0,0,0,0,0,0,0,0,0,0,0,0,0,0,0,0,0,1.1745,1.1745,0,1.1733,1.1733,1.1733,1.1727,1.1727,1.1727,1.1727,1.1712,1.1712,1.1711,0,0,0,0,0,0,0,0,0,0,0,0,0,1.1759,1.1759,1.1745,1.1744,1.1744,1.1734,1.1733,1.1733,1.1727,1.1727,1.1727,1.1727,1.1712,1.1712,1.1711,0,0,0,0,0,0,0,0,0,0,0,0,0,1.1751,1.1759,1.1745,1.174,1.174,1.1734,1.1733,1.1733,1.1727,1.1727,1.1727,1.1727,1.1712,1.1712,1.1711,1.1707,0,0,1.1709,1.1709,0,0,0,0,0,0,0,0,1.1751,1.175,1.1741,1.174,1.174,1.1732,1.1733,1.1724,1.1727,1.1732,1.1727,1.1727,1.1718,1.1717,1.1715,1.1707,1.1706,1.1709,1.1709,1.1709,1.1708,0,0,0,0,0,0,0,1.1752,1.1751,1.174,1.1741,1.174,1.1738,1.1737,1.1731,1.1725,1.1731,1.1731,1.173,1.1718,1.1716,1.1715,1.1706,1.1709,1.1709,1.1708,1.1708,1.1696,1.1696,0,0,0,0,0,0,1.1753,1.1751,1.174,1.174,1.1746,1.1738,1.1737,1.1734,1.1725,1.1724,1.173,1.173,1.1717,1.1715,1.1714,1.171,1.1709,1.1708,1.1708,1.1696,1.1696,1.1696,0,0,0,0,0,0,1.1754,1.1753,1.1741,1.1745,1.1744,1.1738,1.1735,1.1734,1.1732,1.1724,1.1723,1.1729,1.1717,1.1715,1.171,1.171,1.1708,1.1707,1.1696,1.1696,1.1696,1.1702,0,0,0,0,0,0,1.1754,1.1753,1.1751,1.1745,1.1744,1.1737,1.1735,1.1734,1.1731,1.1731,1.1723,1.1721,1.1716,1.1711,1.1709,1.1709,1.1707,1.1696,1.1696,1.1696,1.1702,1.1703,1.1703,0,0,0,0,0,1.1755,1.1752,1.1751,1.175,1.1742,1.1737,1.1736,1.1732,1.1731,1.173,1.1725,1.1721,1.171,1.171,1.1709,1.1708,1.1696,1.1696,1.1696,1.1702,1.1703,1.1703,0,0,0,0,0,0,1.1756,1.1751,1.175,1.1746,1.1742,1.1736,1.1734,1.1732,1.1728,1.1727,1.1721,1.1719,1.1715,1.1711,1.1711,1.1705,1.1703,1.1703,1.1708,1.1708,1.1709,1.171,1.1706,0,0,0,0,0,1.1757,1.1754,1.1749,1.1746,1.1745,1.174,1.1738,1.1735,1.1731,1.1729,1.1723,1.1718,1.1714,1.1711,1.1706,1.1702,1.1701,1.1701,1.1701,1.1702,1.1701,1.1701,1.1701,1.1697,1.1697,1.1697,0,0,1.1756,1.1753,1.1751,1.1746,1.1743,1.1741,1.1738,1.1735,1.1733,1.1727,1.1723,1.172,1.1714,1.171,1.1707,1.1706,1.1703,1.1702,1.1702,1.1702,1.1701,1.1701,1.1702,1.1697,1.1697,1.1697,0,0,1.1754,1.1751,1.1749,1.1747,1.1743,1.1741,1.174,1.1735,1.1734,1.173,1.1726,1.1723,1.1715,1.1712,1.1709,1.1709,1.1706,1.1708,1.171,1.1709,1.171,1.171,1.1711,1.1711,1.1708,1.1708,1.1708,0,1.1753,1.175,1.1748,1.1746,1.1744,1.1742,1.1739,1.1737,1.1731,1.173,1.1729,1.1721,1.1716,1.1712,1.1713,1.171,1.171,1.1708,1.171,1.171,1.171,1.1711,1.1712,1.1708,1.1708,1.1708,1.1708,0,1.175,1.1748,1.1747,1.1744,1.1742,1.174,1.1737,1.1736,1.1734,1.1732,1.1728,1.1724,1.1719,1.1718,1.1715,1.1714,1.1714,1.1711,1.1709,1.1711,1.1712,1.1712,1.1709,1.1708,1.1708,1.1708,0,0,1.1747,1.1745,1.1745,1.1744,1.1741,1.1739,1.1738,1.1735,1.1734,1.1731,1.1729,1.1724,1.1723,1.172,1.1717,1.1717,1.1719,1.1715,1.1715,1.1716,1.1719,1.1721,1.1721,1.1717,1.1717,1.1717,1.172,0,1.1745,1.1742,1.1742,1.174,1.1738,1.1737,1.1736,1.1734,1.1733,1.1731,1.1728,1.1726,1.1724,1.1722,1.1722,1.1719,1.1719,1.1719,1.1716,1.1716,1.1717,1.1721,1.1722,1.1724,1.172,1.172,1.172,0,1.1741,1.1741,1.1739,1.1739,1.1738,1.1737,1.1736,1.1734,1.1732,1.1731,1.173,1.1728,1.1726,1.1725,1.1723,1.1722,1.1721,1.172,1.172,1.1719,1.1717,1.172,1.1725,1.1725,1.172,1.172,1.172,0,1.174,1.1738,1.1738,1.1737,1.1737,1.1736,1.1736,1.1734,1.1733,1.1732,1.1732,1.173,1.1728,1.1727,1.1725,1.1724,1.1723,1.1721,1.1722,1.1722,1.1721,1.1721,1.1726,1.1721,1.1721,1.1721,1.1721,0,1.1737,1.1736,1.1738,1.1737,1.1737,1.1736,1.1736,1.1735,1.1734,1.1734,1.1732,1.1732,1.1729,1.1728,1.1726,1.1725,1.1725,1.1724,1.1723,1.1724,1.1724,1.1722,1.1722,1.1721,1.1721,1.1721,1.1721,0,1.1735,1.1735,1.1735,1.1736,1.1736,1.1736,1.1736,1.1736,1.1735,1.1735,1.1734,1.1733,1.1732,1.1731,1.1728,1.1727,1.1727,1.1726,1.1728,1.1728,1.1729,1.1729,1.1733,1.1733,1.1728,1.1728,1.1728,0,1.1733,1.1733,1.1734,1.1735,1.1735,1.1735,1.1735,1.1736,1.1736,1.1735,1.1735,1.1735,1.1734,1.1733,1.1732,1.1731,1.173,1.1731,1.1729,1.1731,1.1731,1.1731,1.1731,1.1731,1.1731,1.1731,1.1731,0,1.173,1.1731,1.1732,1.1734,1.1734,1.1735,1.1735,1.1736,1.1736,1.1736,1.1737,1.1737,1.1736,1.1736,1.1735,1.1734,1.1733,1.1733,1.1733,1.1733,1.1735,1.1734,1.1729,1.1732,1.1732,1.1732,1.1732,1.1732,1.1728,1.1729,1.1731,1.1732,1.1733,1.1735,1.1735,1.1736,1.1737,1.1737,1.1738,1.1738,1.1738,1.1738,1.1737,1.1738,1.1737,1.1737,1.1737,1.1737,1.1738,1.1735,1.1738,1.1738,1.1738,1.1738,1.1738,0,1.1725,1.1728,1.1729,1.1731,1.1733,1.1734,1.1735,1.1736,1.1737,1.1738,1.1739,1.174,1.1741,1.1741,1.1741,1.1742,1.1741,1.1742,1.1742,1.1742,1.1738,1.1738,1.1742,1.1742,1.1742,1.1742,1.1742,1.1742,1.1724,1.1726,1.1728,1.1731,1.1732,1.1734,1.1735,1.1737,1.1738,1.174,1.1741,1.1742,1.1743,1.1744,1.1745,1.1745,1.1745,1.1746,1.1746,1.1742,1.1742,1.1741,1.1741,1.1746,1.1746,1.1749,1.1749,1.1749]}]]